Weather History for KCKB - December, 2012

Change the Weather History Date:

Friday, December 21, 2012

  Actual Average Record
Temperature  
Mean Temperature 32 °F -  
Max Temperature 37 °F 43 °F 72 °F (1967)
Min Temperature 28 °F 24 °F -13 °F (1942)
Degree Days  
Heating Degree Days 32    
Moisture  
Dew Point 25 °F    
Average Humidity 82    
Maximum Humidity 89    
Minimum Humidity 65    
Precipitation  
Precipitation 0.00 in - - ()
Sea Level Pressure  
Sea Level Pressure 29.60 in    
Wind  
Wind Speed 17 mph (WSW)    
Max Wind Speed 23 mph    
Max Gust Speed 34 mph    
Visibility 3 miles    
Events Fog , Snow    
Averages and records for this station are not official NWS values.
T = Trace of Precipitation, MM = Missing Value Source: NWS Daily Summary

Daily Weather History Graph

Daily Weather History Graph

Search for Another Location

Airport or City:

Trip Planner

Search our weather history database for the weather conditions in past years. The results will help you decide how hot, cold, wet, or windy it might be!

Date:

Astronomy

Dec. 21, 2012 Rise Set
Actual Time 7:37 AM EST 5:01 PM EST
Civil Twilight 7:07 AM EST 5:31 PM EST
Nautical Twilight 6:33 AM EST 6:05 PM EST
Astronomical Twilight 6:00 AM EST 6:37 PM EST
Moon 12:46 PM EST (12/21) 1:24 AM EST (12/21)
Length of Visible Light 10h 24m
Length of Day
9h 23m
Waxing Gibbous, 64% of the Moon is Illuminated
Dec 21
Waxing Gibbous
Dec 28
Full
Jan 4
Last Quarter
Jan 11
New
Jan 18
First Quarter

Hourly Weather History & Observations

Time (EST) Temp. Windchill Dew Point Humidity Pressure Visibility Wind Dir Wind Speed Gust Speed Precip Events Conditions
12:53 AM 37.9 °F 27.9 °F 28.9 °F 70% 29.48 in 10.0 mi West 19.6 mph 32.2 mph N/A   Overcast
1:53 AM 37.0 °F 27.0 °F 26.1 °F 65% 29.49 in 10.0 mi WSW 18.4 mph 32.2 mph 0.00 in   Overcast
2:53 AM 36.0 °F 26.7 °F 26.1 °F 67% 29.49 in 10.0 mi WSW 15.0 mph 26.5 mph 0.00 in   Overcast
3:53 AM 35.1 °F 24.5 °F 25.0 °F 67% 29.48 in 10.0 mi WSW 18.4 mph 29.9 mph 0.00 in   Overcast
4:16 AM 33.8 °F 23.2 °F 24.8 °F 70% 29.47 in 9.0 mi WSW 17.3 mph 26.5 mph 0.00 in Snow Light Snow
4:42 AM 33.8 °F 21.6 °F 24.8 °F 70% 29.47 in 4.0 mi WSW 23.0 mph 29.9 mph 0.00 in Snow Light Snow
4:53 AM 33.1 °F 22.2 °F 26.1 °F 75% 29.47 in 4.0 mi WSW 17.3 mph 26.5 mph 0.00 in Snow Light Snow
5:14 AM 32.0 °F 20.5 °F 24.8 °F 75% 29.47 in 6.0 mi WSW 18.4 mph 31.1 mph 0.00 in Snow Light Snow
5:53 AM 32.0 °F 20.8 °F 24.1 °F 73% 29.47 in 7.0 mi West 17.3 mph 29.9 mph 0.00 in Snow Light Snow
7:53 AM 30.9 °F 21.2 °F 23.0 °F 72% 29.48 in 10.0 mi WSW 12.7 mph 27.6 mph 0.00 in   Overcast
8:53 AM 30.9 °F 19.4 °F 21.9 °F 69% 29.48 in 9.0 mi WSW 17.3 mph 23.0 mph 0.00 in Snow Light Snow
9:53 AM 30.0 °F 18.7 °F 23.0 °F 75% 29.49 in 2.5 mi WSW 16.1 mph 34.5 mph 0.00 in Snow Light Snow
10:27 AM 28.4 °F 17.5 °F 24.8 °F 86% 29.49 in 1.0 mi WSW 13.8 mph 24.2 mph 0.00 in Snow Light Snow
10:53 AM 28.9 °F 17.3 °F 24.1 °F 82% 29.51 in 1.0 mi WSW 16.1 mph 29.9 mph 0.00 in Snow Light Snow
11:31 AM 28.4 °F 15.4 °F 24.8 °F 86% 29.49 in 2.0 mi WSW 19.6 mph 29.9 mph 0.00 in Snow Light Snow
11:53 AM 28.9 °F 16.5 °F 24.1 °F 82% 29.50 in 2.0 mi WSW 18.4 mph 27.6 mph 0.00 in Snow Light Snow
12:53 PM 30.0 °F 18.3 °F 24.1 °F 79% 29.50 in 2.0 mi WSW 17.3 mph 26.5 mph 0.00 in Snow Light Snow
1:06 PM 30.2 °F 18.1 °F 23.0 °F 75% 29.49 in 5.0 mi WSW 18.4 mph 29.9 mph 0.00 in Snow Light Snow
1:53 PM 28.9 °F 16.9 °F 24.1 °F 82% 29.52 in 4.0 mi WSW 17.3 mph 29.9 mph 0.00 in Snow Light Snow
2:12 PM 28.4 °F 17.0 °F 24.8 °F 86% 29.51 in 2.0 mi WSW 15.0 mph 26.5 mph 0.00 in Snow Light Snow
2:19 PM 28.4 °F 16.6 °F 24.8 °F 86% 29.51 in 1.2 mi WSW 16.1 mph 25.3 mph 0.00 in Snow Light Snow
2:53 PM 28.9 °F 16.1 °F 24.1 °F 82% 29.54 in 1.8 mi WSW 19.6 mph 26.5 mph 0.00 in Snow Light Snow
3:03 PM 28.4 °F 17.5 °F 24.8 °F 86% 29.52 in 2.0 mi WSW 13.8 mph 32.2 mph 0.00 in Snow Light Snow
3:23 PM 28.4 °F 16.6 °F 24.8 °F 86% 29.53 in 1.5 mi WSW 16.1 mph 29.9 mph 0.00 in Snow Light Snow
3:53 PM 28.9 °F 16.5 °F 24.1 °F 82% 29.56 in 0.5 mi WSW 18.4 mph 26.5 mph 0.00 in Snow Snow
4:05 PM 28.4 °F 15.8 °F 24.8 °F 86% 29.55 in 0.5 mi WSW 18.4 mph 26.5 mph 0.00 in Fog , Snow Snow
4:34 PM 28.4 °F 16.2 °F 24.8 °F 86% 29.57 in 0.5 mi WSW 17.3 mph 24.2 mph 0.00 in Fog , Snow Snow
4:46 PM 28.4 °F 15.4 °F 24.8 °F 86% 29.58 in 1.2 mi WSW 19.6 mph 34.5 mph 0.00 in Snow Light Snow
4:53 PM 28.9 °F 16.5 °F 24.1 °F 82% 29.60 in 1.5 mi WSW 18.4 mph 32.2 mph 0.00 in Snow Light Snow
5:00 PM 28.4 °F 16.2 °F 24.8 °F 86% 29.58 in 1.0 mi WSW 17.3 mph 27.6 mph 0.00 in Snow Light Snow
5:37 PM 28.4 °F 15.4 °F 24.8 °F 86% 29.61 in 1.2 mi WSW 19.6 mph 28.8 mph 0.00 in Snow Light Snow
5:53 PM 28.0 °F 15.7 °F 25.0 °F 88% 29.64 in 1.0 mi WSW 17.3 mph 27.6 mph 0.00 in Snow Light Snow
6:53 PM 28.9 °F 17.3 °F 25.0 °F 85% 29.68 in 2.0 mi West 16.1 mph 23.0 mph 0.00 in Snow Light Snow
7:03 PM 28.4 °F 18.0 °F 24.8 °F 86% 29.66 in 1.0 mi WSW 12.7 mph 24.2 mph 0.00 in Snow Light Snow
7:17 PM 28.4 °F 17.5 °F 24.8 °F 86% 29.67 in 2.5 mi WSW 13.8 mph - 0.00 in Snow Light Snow
7:32 PM 28.4 °F 18.0 °F 24.8 °F 86% 29.68 in 1.2 mi WSW 12.7 mph 25.3 mph 0.00 in Snow Light Snow
7:39 PM 28.4 °F 17.5 °F 24.8 °F 86% 29.68 in 2.0 mi WSW 13.8 mph 21.9 mph 0.00 in Snow Light Snow
7:49 PM 28.4 °F 17.5 °F 24.8 °F 86% 29.69 in 1.5 mi WSW 13.8 mph 23.0 mph 0.00 in Snow Light Snow
7:53 PM 28.0 °F 16.1 °F 25.0 °F 88% 29.71 in 1.5 mi WSW 16.1 mph 23.0 mph 0.00 in Snow Light Snow
8:05 PM 28.4 °F 17.5 °F 24.8 °F 86% 29.70 in 1.0 mi WSW 13.8 mph 20.7 mph 0.00 in Snow Light Snow
8:24 PM 28.4 °F 18.0 °F 24.8 °F 86% 29.71 in 1.2 mi WSW 12.7 mph 21.9 mph 0.00 in Snow Light Snow
8:53 PM 28.0 °F 18.6 °F 25.0 °F 88% 29.74 in 1.2 mi WSW 10.4 mph - 0.00 in Snow Light Snow
9:40 PM 28.4 °F 18.0 °F 24.8 °F 86% 29.73 in 2.5 mi WSW 12.7 mph 21.9 mph 0.00 in Snow Light Snow
9:53 PM 28.9 °F 18.6 °F 25.0 °F 85% 29.76 in 2.0 mi WSW 12.7 mph - 0.00 in Snow Light Snow
10:02 PM 28.4 °F 16.6 °F 24.8 °F 86% 29.75 in 1.5 mi WSW 16.1 mph 23.0 mph 0.00 in Snow Light Snow
10:18 PM 28.4 °F 18.0 °F 24.8 °F 86% 29.75 in 1.0 mi WSW 12.7 mph 21.9 mph 0.00 in Snow Light Snow
10:33 PM 28.4 °F 18.0 °F 24.8 °F 86% 29.76 in 1.5 mi WSW 12.7 mph - 0.00 in Snow Light Snow
10:41 PM 28.4 °F 18.0 °F 24.8 °F 86% 29.76 in 1.0 mi WSW 12.7 mph - 0.00 in Snow Light Snow
10:48 PM 28.4 °F 17.5 °F 24.8 °F 86% 29.76 in 1.0 mi WSW 13.8 mph - 0.00 in Snow Light Snow
10:53 PM 28.0 °F 17.5 °F 25.0 °F 88% 29.78 in 1.0 mi WSW 12.7 mph - 0.00 in Snow Light Snow
11:08 PM 28.4 °F 18.5 °F 24.8 °F 86% 29.77 in 0.8 mi WSW 11.5 mph - 0.00 in Snow Light Snow
11:15 PM 28.4 °F 18.5 °F 24.8 °F 86% 29.77 in 1.5 mi WSW 11.5 mph - 0.00 in Snow Light Snow
11:37 PM 28.4 °F 18.5 °F 24.8 °F 86% 29.77 in 0.8 mi WSW 11.5 mph 20.7 mph 0.00 in Snow Light Snow
11:53 PM 28.9 °F 18.6 °F 26.1 °F 89% 29.80 in 2.0 mi WSW 12.7 mph - 0.00 in Snow Light Snow